N123DC KOPF-KAPF

Flight info

Callsign N123DC
Flight time 0h 34m
Altitude 1500
Route KOPF-VFR-KAPF
Aircraft A109/L-G/C

Departure

Time 2026-04-24 10:40
Airport Miami-Opa Locka Executive Airport (KOPF)

Arrival

Time 2026-04-24 11:14
Airport Naples Municipal Airport (KAPF)
Time Latitude Longitude Altitude Speed Heading
2026-04-24 10:39 25.96037 -80.44749 1441 ft 136 kts 284°
2026-04-24 10:40 25.96310 -80.45757 1441 ft 136 kts 284°
2026-04-24 10:40 25.96583 -80.46764 1441 ft 136 kts 284°
2026-04-24 10:40 25.96855 -80.47776 1442 ft 136 kts 284°
2026-04-24 10:40 25.97125 -80.48789 1443 ft 137 kts 284°
2026-04-24 10:41 25.97394 -80.49807 1440 ft 137 kts 284°
2026-04-24 10:41 25.97667 -80.50825 1441 ft 137 kts 284°
2026-04-24 10:41 25.97937 -80.51841 1441 ft 137 kts 284°
2026-04-24 10:41 25.98209 -80.52861 1442 ft 138 kts 284°
2026-04-24 10:42 25.98481 -80.53880 1440 ft 137 kts 284°
2026-04-24 10:42 25.98754 -80.54898 1442 ft 137 kts 284°
2026-04-24 10:42 25.99026 -80.55920 1441 ft 138 kts 284°
2026-04-24 10:42 25.99299 -80.56940 1441 ft 138 kts 284°
2026-04-24 10:43 25.99571 -80.57960 1441 ft 138 kts 284°
2026-04-24 10:43 25.99841 -80.58964 1440 ft 137 kts 285°
2026-04-24 10:43 26.00113 -80.59978 1442 ft 137 kts 284°
2026-04-24 10:43 26.00387 -80.60991 1440 ft 137 kts 284°
2026-04-24 10:44 26.00661 -80.62002 1442 ft 137 kts 284°
2026-04-24 10:44 26.00932 -80.63012 1441 ft 136 kts 284°
2026-04-24 10:44 26.01204 -80.64022 1441 ft 136 kts 284°
2026-04-24 10:44 26.01473 -80.65027 1440 ft 135 kts 284°
2026-04-24 10:45 26.01743 -80.66033 1443 ft 136 kts 284°
2026-04-24 10:45 26.02014 -80.67043 1441 ft 136 kts 284°
2026-04-24 10:45 26.02287 -80.68054 1441 ft 136 kts 285°
2026-04-24 10:45 26.02559 -80.69063 1441 ft 136 kts 284°
2026-04-24 10:46 26.02832 -80.70073 1441 ft 136 kts 285°
2026-04-24 10:46 26.03102 -80.71073 1441 ft 137 kts 285°
2026-04-24 10:46 26.03375 -80.72086 1442 ft 137 kts 284°
2026-04-24 10:46 26.03650 -80.73106 1442 ft 138 kts 284°
2026-04-24 10:47 26.03925 -80.74128 1440 ft 137 kts 285°
2026-04-24 10:47 26.04198 -80.75146 1442 ft 138 kts 284°
2026-04-24 10:47 26.04473 -80.76169 1441 ft 138 kts 284°
2026-04-24 10:47 26.04749 -80.77192 1441 ft 138 kts 285°
2026-04-24 10:48 26.05020 -80.78202 1441 ft 138 kts 284°
2026-04-24 10:48 26.05297 -80.79223 1442 ft 138 kts 285°
2026-04-24 10:48 26.05572 -80.80245 1441 ft 138 kts 284°
2026-04-24 10:48 26.05848 -80.81266 1441 ft 138 kts 285°
2026-04-24 10:49 26.06123 -80.82285 1441 ft 137 kts 285°
2026-04-24 10:49 26.06397 -80.83306 1441 ft 138 kts 284°
2026-04-24 10:49 26.06673 -80.84325 1441 ft 137 kts 284°
2026-04-24 10:49 26.06950 -80.85339 1441 ft 137 kts 285°
2026-04-24 10:50 26.07221 -80.86339 1441 ft 137 kts 285°
2026-04-24 10:50 26.07495 -80.87350 1442 ft 137 kts 285°
2026-04-24 10:50 26.07770 -80.88363 1442 ft 137 kts 285°
2026-04-24 10:50 26.08044 -80.89377 1441 ft 137 kts 284°
2026-04-24 10:51 26.08318 -80.90389 1441 ft 137 kts 285°
2026-04-24 10:51 26.08589 -80.91404 1441 ft 137 kts 284°
2026-04-24 10:51 26.08862 -80.92417 1441 ft 137 kts 285°
2026-04-24 10:51 26.09136 -80.93432 1441 ft 137 kts 285°
2026-04-24 10:52 26.09410 -80.94448 1441 ft 137 kts 285°
2026-04-24 10:52 26.09683 -80.95462 1441 ft 137 kts 285°
2026-04-24 10:52 26.09957 -80.96477 1442 ft 137 kts 285°
2026-04-24 10:52 26.10232 -80.97493 1442 ft 137 kts 285°
2026-04-24 10:53 26.10507 -80.98517 1442 ft 138 kts 285°
2026-04-24 10:53 26.10779 -80.99528 1441 ft 138 kts 285°
2026-04-24 10:53 26.11055 -81.00550 1440 ft 138 kts 285°
2026-04-24 10:53 26.11333 -81.01571 1441 ft 138 kts 285°
2026-04-24 10:54 26.11610 -81.02590 1441 ft 137 kts 285°
2026-04-24 10:54 26.11888 -81.03607 1441 ft 137 kts 285°
2026-04-24 10:54 26.12166 -81.04624 1441 ft 137 kts 285°
2026-04-24 10:54 26.12443 -81.05639 1441 ft 137 kts 284°
2026-04-24 10:55 26.12719 -81.06657 1442 ft 137 kts 285°
2026-04-24 10:55 26.13001 -81.07674 1441 ft 137 kts 285°
2026-04-24 10:55 26.13279 -81.08689 1441 ft 137 kts 285°
2026-04-24 10:55 26.13555 -81.09692 1441 ft 137 kts 285°
2026-04-24 10:56 26.13832 -81.10702 1441 ft 136 kts 285°
2026-04-24 10:56 26.14107 -81.11712 1442 ft 136 kts 285°
2026-04-24 10:56 26.14382 -81.12725 1442 ft 137 kts 285°
2026-04-24 10:56 26.14657 -81.13744 1442 ft 138 kts 285°
2026-04-24 10:57 26.14935 -81.14765 1440 ft 137 kts 285°
2026-04-24 10:57 26.15210 -81.15781 1442 ft 137 kts 285°
2026-04-24 10:57 26.15391 -81.16825 1441 ft 138 kts 274°
2026-04-24 10:57 26.15473 -81.17886 1441 ft 138 kts 273°
2026-04-24 10:58 26.15553 -81.18948 1442 ft 138 kts 273°
2026-04-24 10:58 26.15634 -81.20011 1441 ft 138 kts 273°
2026-04-24 10:58 26.15706 -81.21075 1441 ft 138 kts 271°
2026-04-24 10:58 26.15742 -81.22141 1441 ft 138 kts 270°
2026-04-24 10:59 26.15778 -81.23207 1440 ft 137 kts 270°
2026-04-24 10:59 26.15812 -81.24267 1440 ft 137 kts 270°
2026-04-24 10:59 26.15845 -81.25326 1441 ft 136 kts 270°
2026-04-24 10:59 26.15878 -81.26379 1441 ft 136 kts 270°
2026-04-24 11:00 26.15911 -81.27420 1442 ft 137 kts 270°
2026-04-24 11:00 26.15944 -81.28479 1442 ft 137 kts 270°
2026-04-24 11:00 26.15977 -81.29541 1442 ft 138 kts 270°
2026-04-24 11:00 26.16011 -81.30605 1441 ft 138 kts 270°
2026-04-24 11:01 26.16032 -81.31672 1441 ft 138 kts 268°
2026-04-24 11:01 26.15976 -81.32733 1441 ft 137 kts 263°
2026-04-24 11:01 26.15890 -81.33792 1441 ft 137 kts 263°
2026-04-24 11:01 26.15804 -81.34846 1441 ft 137 kts 263°
2026-04-24 11:02 26.15715 -81.35905 1442 ft 137 kts 263°
2026-04-24 11:02 26.15625 -81.36965 1442 ft 137 kts 263°
2026-04-24 11:02 26.15533 -81.38026 1441 ft 138 kts 263°
2026-04-24 11:02 26.15443 -81.39070 1440 ft 137 kts 263°
2026-04-24 11:03 26.15354 -81.40128 1442 ft 137 kts 263°
2026-04-24 11:03 26.15264 -81.41193 1442 ft 138 kts 263°
2026-04-24 11:03 26.15205 -81.42256 1440 ft 138 kts 266°
2026-04-24 11:03 26.15168 -81.43319 1441 ft 137 kts 266°
2026-04-24 11:04 26.15129 -81.44380 1443 ft 137 kts 266°
2026-04-24 11:04 26.15094 -81.45443 1441 ft 137 kts 266°
2026-04-24 11:04 26.15060 -81.46506 1440 ft 137 kts 266°
2026-04-24 11:04 26.15026 -81.47564 1442 ft 137 kts 266°
2026-04-24 11:05 26.14990 -81.48624 1442 ft 137 kts 266°
2026-04-24 11:05 26.14969 -81.49689 1441 ft 138 kts 268°
2026-04-24 11:05 26.14972 -81.50754 1440 ft 138 kts 268°
2026-04-24 11:05 26.14968 -81.51823 1443 ft 138 kts 268°
2026-04-24 11:06 26.14967 -81.52894 1442 ft 138 kts 268°
2026-04-24 11:06 26.14968 -81.53964 1441 ft 138 kts 269°
2026-04-24 11:06 26.14970 -81.55034 1441 ft 138 kts 269°
2026-04-24 11:06 26.14973 -81.56090 1441 ft 138 kts 269°
2026-04-24 11:07 26.14982 -81.58208 1442 ft 136 kts 269°
2026-04-24 11:07 26.14986 -81.59266 1441 ft 136 kts 269°
2026-04-24 11:07 26.14989 -81.60324 1442 ft 137 kts 269°
2026-04-24 11:08 26.14990 -81.61385 1441 ft 137 kts 269°
2026-04-24 11:08 26.14991 -81.62448 1441 ft 138 kts 269°
2026-04-24 11:08 26.14987 -81.63494 1353 ft 135 kts 268°
2026-04-24 11:08 26.14982 -81.64528 1280 ft 130 kts 268°
2026-04-24 11:09 26.14946 -81.65467 1264 ft 114 kts 264°
2026-04-24 11:09 26.14906 -81.66279 1316 ft 97 kts 265°
2026-04-24 11:09 26.14880 -81.66988 1345 ft 87 kts 266°
2026-04-24 11:09 26.14862 -81.67653 1323 ft 86 kts 266°
2026-04-24 11:10 26.14846 -81.68323 1275 ft 88 kts 267°
2026-04-24 11:10 26.14835 -81.69021 1214 ft 91 kts 267°
2026-04-24 11:10 26.14822 -81.69729 1169 ft 92 kts 267°
2026-04-24 11:10 26.14808 -81.70445 1118 ft 93 kts 267°
2026-04-24 11:11 26.14793 -81.71167 1064 ft 94 kts 267°
2026-04-24 11:11 26.14783 -81.71894 1013 ft 94 kts 267°
2026-04-24 11:11 26.14765 -81.72623 965 ft 94 kts 267°
2026-04-24 11:11 26.14749 -81.73356 917 ft 95 kts 267°
2026-04-24 11:12 26.14734 -81.74080 874 ft 95 kts 267°
2026-04-24 11:12 26.14625 -81.74802 820 ft 95 kts 249°
2026-04-24 11:12 26.14290 -81.75407 825 ft 89 kts 227°
2026-04-24 11:12 26.13873 -81.75894 658 ft 83 kts 225°
2026-04-24 11:13 26.13484 -81.76341 549 ft 79 kts 225°
2026-04-24 11:13 26.13116 -81.76797 559 ft 81 kts 230°
2026-04-24 11:13 26.12909 -81.77393 533 ft 87 kts 269°
2026-04-24 11:13 26.13192 -81.77985 627 ft 94 kts 321°
2026-04-24 11:14 26.13820 -81.78289 685 ft 99 kts 338°
2026-04-24 11:14 26.14410 -81.78316 263 ft 77 kts 15°
2026-04-24 11:14 26.14831 -81.78006 89 ft 69 kts 37°
2026-04-24 11:14 26.15136 -81.77687 13 ft 47 kts 39°
2026-04-24 11:15 26.15340 -81.77480 10 ft 15 kts 42°
2026-04-24 11:15 26.15352 -81.77438 10 ft 4 kts 109°
2026-04-24 11:15 26.15343 -81.77419 10 ft 5 kts 127°
2026-04-24 11:15 26.15319 -81.77388 9 ft 7 kts 122°
2026-04-24 11:16 26.15313 -81.77316 9 ft 13 kts 87°
2026-04-24 11:16 26.15314 -81.77194 15 ft 14 kts 70°
2026-04-24 11:16 26.15308 -81.77125 11 ft 0 kts 56°
2026-04-24 11:16 26.15308 -81.77126 11 ft 0 kts 25°
2026-04-24 11:17 26.15307 -81.77126 11 ft 0 kts 63°